Pagina principale
METAR-TAF:

METAR-TAF

Aeroporti :

Town MET

Windhoek, Namibia

latitudine: 22-34S, longitudine: 017-06E, altezza: 1725 m

Osservazione

Il bollettino è stato emesso 44 minuti fa, alle 16:00 UTC
Vento 5 kt da nord-est
Temperature 24°C
Umidità 12%
Pressione 1027 hPa

METAR: FYWW 311600Z AUTO 05005KT //// // ////// 24/M07 Q1027

Ora: 18:44 (16:44 UTC)


TAF: mancante

Osservazioni e previsioni meteorologiche di più di 4000 aeroporti (messaggi METAR e TAF).

Le stazioni disponibili sono rappresentate dai dischi gialli e rossi sulla carta.

Puntare il mouse per vedere il nome della stazione.

Clicca sopra per visualizzare le osservazioni e previsioni meteorologiche.

Per cambiare la mappa : fare clic sui pulsanti verdi con una croce nera per ingrandire, il pulsante verde con un trattino per diminuire, o sulla freccia verde per le mappe adiacenti.


METAR-TAF: